Wind_Speed
15 14 15 14 15 14 14 14 14 13 13 13 13 12 12 12 12 11 11 10 10 9 9 9 9 10 9 10 10 9 10 9 9 9 7 6 8 8 8 9 9 10 10 11 10 10 11 12 12 12 11 11 12 11 13 14 14 15 17 18 20 19 16 13 14 15 13 11 12 18 21 19 19 21 18 14 15 14 14 16 14 14 17 17 18 19 20 21
15 15 15 15 14 14 14 14 14 13 13 13 12 11 11 10 10 9 9 9 9 9 9 9 10 10 10 11 10 11 11 10 11 9 7 8 9 9 10 10 11 11 11 12 12 12 12 13 13 14 13 12 13 14 15 15 17 18 16 18 20 19 14 13 18 20 18 16 15 19 25 23 19 20 17 14 14 14 14 15 16 17 19 19 20 21 22 22
15 15 15 15 14 14 13 13 13 12 11 11 10 9 8 8 8 8 8 8 8 9 9 10 10 10 11 11 11 12 12 13 12 8 8 11 12 12 12 12 12 12 12 13 13 13 13 13 14 15 14 13 12 15 17 17 19 19 18 20 21 17 14 17 22 23 23 24 22 24 28 25 20 19 16 12 10 15 17 17 19 21 21 21 22 22 22 22
15 15 14 14 13 13 12 11 11 10 9 8 7 7 7 7 7 8 9 9 9 10 10 10 11 11 11 12 13 13 15 15 11 9 13 14 14 14 14 14 14 13 14 13 13 14 13 13 14 14 15 15 13 14 18 19 20 19 19 22 21 17 17 22 26 26 27 26 26 27 26 24 23 20 16 13 12 17 19 19 21 22 21 21 21 21 22 22
14 14 13 12 11 10 10 9 8 7 7 6 6 6 7 8 8 9 10 10 11 11 12 12 13 13 14 14 15 15 17 14 11 13 16 15 15 15 15 15 15 15 15 14 15 15 14 14 14 14 14 16 15 15 19 21 21 21 21 21 21 19 19 25 29 28 28 27 25 25 24 22 22 21 19 16 15 18 20 20 21 22 22 20 20 21 21 22
12 12 11 10 9 8 7 6 6 5 5 5 6 7 8 9 10 10 11 12 13 14 15 16 16 17 17 16 17 17 16 14 14 16 16 15 16 16 16 16 16 16 16 15 16 15 15 14 13 14 13 15 15 15 17 17 19 23 23 21 19 19 20 27 30 27 26 26 24 24 24 21 20 23 22 19 17 18 20 21 22 23 24 22 21 22 22 22
10 9 8 7 6 6 5 5 6 6 6 7 8 9 9 10 11 12 13 14 16 17 17 18 18 18 18 18 17 17 17 16 15 15 15 16 16 16 17 17 17 16 16 15 15 15 15 14 13 12 11 13 14 13 15 15 21 26 26 22 19 19 24 29 29 25 24 24 24 23 22 19 21 24 23 19 18 18 19 22 23 24 25 24 24 24 24 24
7 6 6 5 5 5 6 6 7 8 8 9 10 11 12 13 14 15 16 17 18 18 18 18 18 18 17 18 16 16 19 18 15 15 16 16 16 17 17 16 16 15 14 14 14 15 14 13 11 9 10 13 12 13 15 18 24 28 27 23 19 22 26 28 26 24 23 22 22 21 19 20 22 22 21 20 19 18 20 22 24 25 26 26 25 25 25 25
5 4 4 5 5 6 7 8 9 10 11 11 12 13 15 16 17 18 18 19 18 18 18 17 17 17 16 16 15 15 17 16 16 17 17 16 17 17 15 14 14 14 14 14 13 13 13 13 12 11 14 13 12 15 18 20 23 25 25 20 19 22 25 26 23 22 23 22 21 19 19 22 22 20 22 23 22 21 22 23 24 25 26 27 27 27 27 26
4 4 5 5 6 7 8 10 11 12 13 14 15 17 18 18 19 19 19 18 17 16 15 15 14 14 14 13 14 14 14 13 16 17 16 16 16 15 14 14 14 14 14 14 13 13 12 13 13 13 15 14 15 17 19 22 23 22 22 22 22 23 25 25 23 23 22 20 20 17 17 23 21 20 23 24 23 23 23 24 25 26 27 28 28 28 28 27
5 6 6 7 8 9 10 12 13 14 15 16 17 18 18 18 18 17 16 15 14 14 13 13 12 12 12 12 12 12 12 13 15 15 15 15 14 15 15 15 15 15 15 14 14 13 12 12 12 13 14 14 15 16 18 21 20 20 21 23 23 21 24 24 22 22 21 20 20 16 17 22 22 21 24 25 24 24 23 24 24 25 26 27 27 27 27 26
7 8 9 10 10 11 12 13 15 16 16 17 17 17 16 16 15 14 14 14 13 13 13 13 12 12 13 13 12 12 12 13 14 14 14 14 15 16 15 15 16 16 16 15 14 13 12 12 12 12 13 14 15 15 18 18 17 18 20 22 21 20 23 23 22 21 19 20 20 17 16 18 23 24 24 24 25 25 24 24 24 25 25 25 25 25 25 25
10 10 11 12 12 13 14 14 15 16 16 16 15 15 14 14 14 14 14 14 14 14 13 13 12 12 12 12 12 12 12 12 12 14 15 16 15 14 14 15 15 15 15 14 14 13 13 13 13 13 14 14 16 16 17 18 18 19 19 22 22 21 21 21 23 19 16 17 16 14 11 14 22 22 20 21 22 22 23 23 22 22 22 23 23 24 24 25
11 12 13 13 14 14 14 14 14 14 14 13 13 14 14 14 13 13 13 13 12 12 11 10 10 10 10 11 11 11 11 12 12 14 15 15 15 14 14 14 14 14 14 13 13 12 13 14 13 14 14 14 15 16 17 18 19 18 17 20 21 19 17 17 20 17 15 15 12 10 8 13 22 20 18 20 20 20 19 19 19 18 18 19 20 21 22 23
13 13 14 14 14 14 14 13 12 11 11 12 12 12 12 11 11 12 12 11 11 10 9 8 8 9 10 9 8 10 12 13 13 13 14 14 15 15 15 14 13 13 13 13 13 12 12 13 14 15 15 14 15 16 16 15 16 17 15 16 15 13 14 15 16 15 15 13 11 10 8 14 22 20 18 19 20 20 18 17 17 17 17 17 18 19 19 20
14 14 14 13 13 12 11 9 9 10 10 11 10 10 11 11 11 12 12 11 11 10 9 7 7 10 10 9 10 12 13 13 13 14 14 14 14 14 14 14 13 13 13 13 13 12 12 13 13 14 14 13 13 15 15 13 13 15 16 16 13 11 12 13 13 13 13 12 11 9 9 16 22 19 18 19 21 20 18 18 18 18 19 19 19 18 18 18
12 12 11 9 8 8 8 8 9 9 9 9 8 9 11 12 13 12 12 12 11 10 9 7 9 9 7 8 11 13 15 15 16 16 15 15 14 13 13 13 14 13 13 13 13 11 11 12 11 12 14 13 12 11 11 11 10 10 11 12 12 10 10 11 13 13 12 12 10 9 13 20 22 19 18 20 23 22 20 21 21 21 21 20 19 18 17 17
9 8 8 7 7 7 7 8 8 8 7 8 8 10 11 13 14 11 10 11 10 9 7 7 9 8 5 9 12 14 16 16 17 16 15 15 13 13 13 14 14 14 13 13 12 11 11 12 12 10 10 10 9 7 9 9 10 11 14 16 16 16 16 17 17 16 14 12 10 11 17 21 22 21 21 23 26 25 23 23 22 22 21 20 19 17 16 16
7 7 7 7 7 7 7 7 7 7 7 8 9 11 12 13 14 12 11 12 10 8 7 7 8 8 7 10 13 16 18 17 17 16 15 14 13 13 13 13 14 14 13 11 13 15 14 13 12 9 6 5 6 8 11 12 14 19 22 23 23 23 22 21 19 17 16 13 11 13 19 22 22 22 22 24 26 25 24 23 22 21 19 17 16 15 14 13
7 7 7 6 6 6 6 6 6 7 8 9 11 12 12 12 13 13 13 12 10 8 8 8 8 9 10 12 14 17 17 16 16 15 15 15 15 14 13 13 14 14 13 13 13 14 14 11 8 8 9 9 11 12 15 18 21 22 22 21 21 20 18 17 17 17 15 14 14 16 19 23 23 22 23 24 25 25 24 22 19 17 15 14 13 12 12 11
6 6 6 5 6 5 6 6 7 9 10 11 12 13 13 12 12 12 11 10 7 7 10 9 9 10 12 14 16 16 16 16 16 15 16 17 16 16 16 15 14 11 12 14 12 11 12 9 8 11 12 13 16 18 19 20 20 19 18 17 15 14 13 14 14 14 13 14 16 18 19 22 23 23 24 23 23 23 22 20 18 16 15 13 11 10 9 8
5 5 5 5 6 6 7 8 9 10 11 12 12 12 13 12 11 10 10 8 4 7 12 10 10 13 13 14 16 16 16 16 15 15 16 16 15 15 14 13 12 8 9 13 12 9 9 8 9 12 14 16 17 18 18 18 17 15 14 12 10 10 11 13 13 13 13 12 14 17 18 21 23 23 22 21 21 21 20 19 17 15 12 9 8 7 7 7
5 5 6 6 8 8 9 9 10 11 11 11 11 11 11 10 10 9 8 6 2 7 13 12 13 15 15 15 16 16 17 15 15 16 16 15 15 15 13 12 11 8 8 12 12 8 6 7 11 14 16 17 17 17 17 16 14 12 10 8 10 13 13 12 14 15 15 13 14 18 20 22 23 22 22 21 20 19 17 14 11 9 7 6 6 6 6 6
5 6 7 8 9 9 10 10 10 10 10 11 10 10 10 9 9 8 7 5 1 7 14 13 14 16 16 16 15 16 15 14 16 17 17 17 16 15 14 12 12 11 10 12 12 9 6 9 15 17 17 17 15 14 15 14 10 9 9 11 13 16 15 14 16 18 18 16 17 20 18 18 21 20 18 15 13 11 9 7 5 4 4 4 4 4 5 5
6 7 8 9 9 9 9 9 10 10 10 10 9 10 9 9 9 7 5 2 0 8 15 15 15 16 16 16 16 16 14 14 18 18 18 18 16 16 15 13 13 13 12 13 11 6 7 14 19 19 16 14 11 10 11 11 12 11 11 13 14 16 17 18 18 18 16 15 16 16 11 7 12 15 10 6 5 4 2 2 2 2 2 3 3 4 5 5
6 8 9 10 9 10 9 9 9 9 9 9 9 9 8 8 7 5 2 1 0 10 17 17 17 16 16 17 17 16 14 16 18 17 18 17 16 16 15 13 14 14 13 14 10 5 12 20 19 17 13 10 8 8 10 13 16 15 12 13 15 17 19 20 18 15 13 12 13 13 12 4 5 10 9 5 2 1 1 0 0 1 2 2 3 4 4 5
7 9 10 11 11 11 11 10 9 9 9 9 9 9 8 7 5 3 0 4 1 12 17 17 16 16 17 16 17 16 14 17 17 16 18 17 15 15 14 14 15 16 14 12 9 10 18 21 16 13 11 7 5 8 14 17 17 15 13 15 17 18 20 20 19 19 18 17 15 15 16 8 4 7 8 3 2 3 3 1 1 1 2 2 3 4 4 5
8 10 11 12 12 11 11 10 10 9 9 9 9 8 7 6 5 3 1 3 4 13 16 16 15 15 16 16 17 17 16 16 16 17 17 16 16 15 15 14 14 15 12 9 12 16 20 19 14 12 10 7 7 13 18 17 15 15 16 18 20 19 20 19 19 20 17 14 14 16 18 8 1 4 3 1 1 2 3 3 3 3 3 3 3 4 4 6
8 10 12 13 12 12 11 10 9 9 9 8 8 8 7 6 4 2 2 1 6 12 14 14 14 15 16 17 17 17 16 16 16 17 16 16 16 16 15 13 14 14 8 9 17 19 20 19 15 13 10 10 14 20 18 14 14 17 19 21 20 18 18 18 17 14 10 9 10 10 15 8 2 3 1 1 2 7 5 4 4 4 4 4 4 4 5 6
9 11 12 13 12 12 11 10 9 9 9 9 8 8 6 5 4 1 1 3 7 11 12 12 13 14 15 15 15 15 16 15 16 17 15 16 15 15 14 11 13 12 7 12 19 17 20 19 14 13 12 14 20 19 13 13 17 19 21 21 19 17 15 16 14 9 5 6 5 5 7 5 1 5 5 4 5 7 8 6 4 4 5 5 4 6 6 7
10 12 13 13 12 12 11 9 9 9 9 9 8 7 4 5 6 2 1 6 7 9 11 11 13 15 15 15 16 17 16 16 18 16 15 16 15 16 17 16 19 16 11 17 20 16 20 18 13 13 12 16 22 17 12 14 17 19 20 19 17 15 10 11 9 5 3 3 5 7 3 3 0 6 9 7 7 9 9 7 4 4 5 5 6 7 8 8
10 12 14 14 13 12 10 9 10 9 9 8 7 6 3 4 8 6 4 6 6 9 12 12 13 15 15 17 19 19 17 17 19 18 18 20 21 23 24 23 24 20 17 21 19 17 19 15 11 11 13 19 23 19 17 17 17 17 16 16 13 9 5 4 4 4 3 2 6 3 4 4 2 6 7 4 5 7 8 6 5 5 6 7 8 9 10 10
11 13 14 14 12 11 10 10 10 9 9 8 6 4 3 3 6 6 7 7 6 10 11 11 13 14 15 18 19 20 18 17 18 17 16 18 20 22 23 22 20 19 20 19 16 18 17 10 8 11 17 21 21 20 21 21 20 15 10 13 11 5 3 3 2 3 3 1 1 7 9 2 5 3 2 1 3 4 6 6 6 6 7 9 10 11 12 13
11 13 14 13 11 10 10 10 9 9 8 7 5 3 4 6 5 5 8 9 8 10 9 9 13 13 15 17 17 21 21 17 18 17 14 15 17 19 22 22 20 22 23 17 14 16 11 6 10 15 18 19 18 20 23 22 16 10 8 9 9 6 5 2 3 5 5 7 13 14 8 0 5 2 2 3 4 4 4 6 7 8 10 11 12 13 14 15
11 13 13 12 10 10 10 9 9 9 8 7 5 5 8 7 5 6 9 8 8 10 9 8 12 13 14 14 16 21 20 16 18 16 14 17 18 19 23 23 21 26 25 19 16 12 7 9 13 16 15 16 20 22 21 17 12 8 9 7 7 11 10 8 10 12 11 10 11 6 1 2 3 4 4 4 4 5 5 7 8 10 12 14 15 16 17 19
11 12 11 10 9 9 9 10 9 8 7 6 5 9 13 9 6 7 8 8 9 11 10 8 12 15 14 13 15 19 18 15 16 13 12 17 17 18 22 22 22 26 25 22 18 9 8 13 14 15 14 16 22 22 16 14 13 10 10 11 12 13 12 10 12 15 12 6 3 2 5 4 3 2 4 4 4 6 8 9 11 13 15 17 19 20 22 23
10 10 9 8 8 9 9 10 9 7 7 6 7 13 15 11 9 9 8 9 9 10 11 11 12 15 16 15 15 17 18 15 14 12 10 13 15 18 21 20 21 25 24 21 16 8 11 16 14 13 13 17 22 18 11 12 16 14 10 14 16 10 7 7 7 9 8 3 4 4 3 5 4 2 4 5 7 8 9 12 14 17 19 21 24 25 26 26
8 8 7 8 8 9 10 9 8 8 7 7 11 16 14 11 11 10 9 10 9 10 13 14 13 15 16 17 17 19 19 15 14 14 11 10 14 18 19 19 22 24 22 19 14 10 12 15 13 10 13 20 21 12 9 11 14 13 10 13 15 8 7 11 8 5 4 2 4 7 6 2 3 2 3 6 10 11 13 16 18 21 23 25 28 29 30 30
6 6 7 8 9 9 8 8 10 10 7 8 13 15 12 11 11 10 10 11 10 11 13 14 14 15 15 17 18 20 20 17 15 15 11 12 15 17 16 19 22 22 20 17 13 12 11 7 10 12 15 20 16 8 12 14 12 12 12 13 14 8 7 13 12 8 5 3 2 6 8 2 3 3 6 9 12 14 17 19 22 25 26 28 31 32 32 32
6 7 7 9 9 8 8 10 12 8 6 11 15 13 12 12 11 11 11 11 12 12 13 14 15 15 15 16 17 19 19 16 14 13 12 15 17 15 16 20 22 20 17 15 12 14 12 5 11 17 17 14 11 12 17 16 12 14 15 15 16 13 12 14 13 9 5 2 1 3 4 3 5 7 10 12 13 13 16 19 23 27 29 32 33 32 31 31
7 8 9 9 9 9 10 11 10 9 10 15 15 13 13 12 11 12 12 12 13 12 13 14 15 15 16 17 17 19 19 15 12 11 13 16 17 16 17 20 22 19 15 15 14 15 15 10 13 21 21 16 15 18 16 11 12 17 16 13 15 17 17 12 6 6 6 5 4 4 3 7 11 11 11 13 14 15 18 21 26 29 32 34 34 31 31 35
8 8 10 9 9 11 10 9 10 12 14 16 15 14 14 12 12 13 13 13 14 13 13 14 15 15 16 17 18 19 20 15 11 12 14 17 18 18 18 20 20 17 15 14 15 16 16 11 13 19 20 18 18 16 10 8 14 20 17 15 17 18 18 10 4 8 12 10 10 8 5 7 11 10 12 15 17 22 26 29 32 33 34 35 33 33 36 41
8 9 10 10 12 11 8 10 13 14 15 16 15 14 14 13 13 13 13 14 14 14 14 14 15 16 16 18 18 19 19 15 11 13 15 17 19 18 18 19 17 15 14 14 15 17 14 9 14 18 15 14 15 11 6 8 15 17 16 20 19 19 22 15 8 10 12 10 10 7 3 6 10 13 17 22 26 30 34 35 35 35 35 34 34 38 42 44
9 10 10 11 13 11 8 12 15 15 16 16 14 14 13 14 14 13 14 15 15 14 14 15 16 15 16 18 18 18 18 15 12 13 16 17 19 18 18 18 16 14 14 14 16 17 13 10 14 14 10 10 10 7 7 14 20 19 17 20 20 21 24 17 7 7 6 5 6 5 4 8 14 19 25 30 32 35 37 38 38 37 36 36 39 43 44 43
9 11 12 13 13 9 9 15 15 15 16 15 14 14 13 13 14 14 13 14 15 15 15 15 15 15 16 18 19 18 19 17 14 14 17 18 18 18 17 17 14 13 14 14 16 17 15 13 12 8 6 6 6 7 12 19 22 21 18 19 22 24 20 10 5 4 5 7 12 10 7 11 17 23 29 32 34 37 38 38 38 36 37 39 43 44 42 42
7 9 12 13 13 10 12 15 14 14 14 13 14 14 13 13 14 13 13 14 15 16 15 15 15 15 16 18 19 18 19 18 16 16 17 18 17 18 17 15 13 13 14 15 16 16 15 13 10 9 10 10 13 16 15 16 22 23 20 19 24 22 13 6 6 6 8 13 16 11 8 16 24 25 27 31 34 36 37 36 35 36 39 43 44 42 42 44
10 9 9 10 11 12 14 15 13 14 14 13 14 14 13 13 13 13 14 14 16 17 16 15 16 16 17 19 19 17 17 17 17 17 17 17 17 17 16 13 12 13 14 15 16 17 16 13 10 12 14 14 17 16 12 16 23 23 20 21 21 15 7 7 9 9 11 13 12 11 15 25 31 30 30 31 32 32 33 33 35 38 42 44 43 42 44 45
13 13 13 11 11 13 14 14 13 14 13 12 13 14 13 13 13 13 14 14 15 17 17 17 17 17 18 20 19 18 17 17 17 17 16 16 17 16 14 12 11 13 15 16 17 17 15 12 12 16 18 16 14 11 13 21 24 22 22 20 13 6 8 13 14 12 13 13 15 20 25 29 33 33 32 31 30 30 32 34 39 42 43 43 43 44 45 45
13 14 15 14 13 14 15 14 13 13 13 12 13 14 13 13 13 14 14 15 16 17 18 17 17 17 18 19 18 18 18 18 18 17 16 16 16 14 13 11 11 14 16 16 17 16 13 11 13 18 21 17 11 12 18 23 23 24 23 16 7 6 14 19 17 13 14 17 21 25 29 32 33 32 32 32 32 32 35 40 43 44 44 44 45 46 46 45
14 15 14 13 14 16 16 14 13 13 13 13 14 14 14 14 14 14 15 16 17 18 18 17 16 17 17 17 17 18 18 18 18 17 16 16 16 13 12 12 12 14 16 16 17 15 13 13 14 19 23 16 11 18 22 21 22 22 15 9 8 12 17 19 18 16 18 22 26 27 31 34 32 31 33 34 33 35 40 44 45 45 45 46 47 47 45 45
15 16 14 12 15 17 16 14 13 13 14 14 14 14 14 15 15 14 15 16 18 19 18 17 17 17 18 17 17 17 17 16 16 15 15 16 15 13 12 13 14 14 16 17 17 15 14 14 15 19 20 14 14 22 22 19 19 15 8 9 13 16 18 17 17 19 22 26 28 29 33 33 30 31 35 34 34 39 44 46 46 46 47 47 47 46 45 46
15 16 15 12 14 17 16 15 14 14 14 15 15 15 15 15 16 15 16 17 18 19 18 17 17 18 18 18 17 16 16 15 14 14 14 15 14 13 13 14 14 15 16 17 17 16 14 15 17 17 17 16 20 25 22 16 12 8 8 14 16 15 16 18 20 24 25 26 28 31 33 30 28 30 33 34 38 44 47 47 47 48 49 48 47 46 46 48
Wind_Direction
99 98 95 93 92 91 91 91 91 92 92 92 91 88 85 80 77 72 66 60 53 45 36 30 22 17 14 9 4 0 356 354 351 344 347 349 343 340 335 329 324 320 314 309 301 295 289 285 282 277 275 277 277 268 262 260 254 248 245 244 248 254 257 264 266 260 245 241 268 267 267 281 286 285 288 286 278 273 270 269 270 264 260 257 258 260 262 266
100 99 97 95 93 92 92 92 92 92 90 89 86 81 75 69 64 56 50 42 34 26 19 11 5 1 357 355 350 344 341 340 337 334 339 337 331 328 326 326 323 319 314 309 304 299 293 288 286 284 283 282 280 273 267 268 266 261 257 252 256 262 262 268 265 257 248 244 264 279 280 285 286 284 288 289 283 276 266 261 259 253 255 256 257 260 262 265
101 100 98 95 93 91 91 91 90 89 86 81 76 69 60 52 43 35 27 18 10 4 358 352 349 345 344 342 337 333 329 328 326 322 330 328 325 323 321 320 316 313 309 306 303 299 294 288 285 285 284 279 270 269 273 271 267 269 264 256 261 267 261 263 264 260 256 254 264 279 283 285 286 284 283 282 273 268 264 259 259 257 257 259 261 263 264 266
102 100 97 94 91 89 87 86 84 79 75 68 59 48 35 23 13 6 359 354 349 346 342 339 336 334 334 331 329 327 322 325 320 313 323 322 320 317 313 311 308 306 303 301 298 294 290 284 281 278 274 272 261 255 263 266 268 271 264 262 268 262 256 263 263 260 261 264 270 277 281 282 282 280 276 266 248 258 265 263 265 266 266 265 265 266 264 264
100 98 95 93 90 88 85 81 75 68 61 46 32 17 5 356 350 345 341 339 336 335 333 331 330 328 327 324 324 322 320 323 316 314 319 317 314 310 307 306 303 302 299 297 294 290 286 281 277 274 270 269 263 246 251 263 271 268 261 265 271 266 262 264 263 264 268 273 276 278 278 278 279 275 271 266 255 257 261 261 263 267 269 268 267 266 263 261
94 91 88 86 83 80 73 65 55 43 27 11 0 351 345 339 335 333 332 331 330 330 328 326 325 323 323 321 321 319 315 313 309 310 313 311 308 305 304 304 303 302 298 295 292 289 285 282 278 277 275 271 270 255 252 263 265 261 262 269 274 270 261 259 266 274 277 278 277 275 277 278 275 272 271 269 263 258 256 256 256 259 264 266 264 262 260 258
86 82 77 71 64 54 42 29 17 6 357 350 345 339 335 331 328 327 326 326 325 324 323 322 321 320 320 319 319 315 308 304 301 304 308 307 304 304 305 305 304 302 298 294 290 286 283 282 281 282 280 272 273 267 258 254 251 254 265 276 272 263 258 262 274 282 279 278 277 276 277 274 267 270 274 270 264 259 254 252 250 252 259 262 261 261 260 259
76 69 60 48 35 21 9 1 354 347 343 339 335 332 330 327 325 324 322 321 320 320 319 319 318 317 317 315 315 312 306 303 303 306 309 307 304 305 305 303 301 298 294 289 285 282 280 279 278 273 264 264 267 266 257 247 249 258 271 281 273 263 265 271 279 281 277 276 276 276 273 267 267 274 278 271 265 259 252 250 249 251 256 259 260 260 259 259
60 49 33 21 7 357 351 346 341 338 335 331 328 327 325 324 322 320 319 318 317 317 317 317 317 315 314 314 313 310 305 304 308 311 311 307 306 305 302 299 296 293 292 290 288 283 278 273 269 258 255 259 259 254 254 254 256 264 275 279 270 268 274 278 281 279 276 276 275 273 270 270 271 272 271 267 263 258 253 250 250 251 254 257 257 258 258 258
24 10 359 352 344 342 338 335 333 330 327 325 324 323 322 320 318 317 316 315 316 317 319 319 320 318 317 316 313 309 307 308 311 313 311 309 307 304 301 299 297 298 298 297 294 288 283 276 271 268 266 267 262 258 259 262 266 270 273 272 270 274 278 281 283 280 277 277 275 271 268 270 270 267 266 265 264 261 257 253 253 254 254 256 258 258 259 259
349 344 340 337 335 333 331 328 327 324 323 322 321 320 320 318 317 318 318 320 322 324 327 327 327 326 323 322 317 313 314 315 312 311 312 312 310 306 302 302 302 304 304 301 296 294 291 284 279 275 273 271 268 268 267 269 274 275 272 273 277 279 277 279 281 280 280 278 274 268 262 268 269 265 265 268 268 265 261 258 256 257 257 259 260 260 261 261
333 331 329 328 326 324 325 323 322 322 322 321 321 322 321 322 323 324 325 327 328 327 327 326 326 327 324 324 324 321 317 316 315 315 314 310 307 305 303 302 301 302 303 300 298 298 294 288 286 279 277 277 272 270 274 279 282 279 279 281 282 280 280 284 284 281 281 277 277 271 261 267 270 267 267 268 269 268 265 263 261 261 261 262 262 261 261 262
321 320 319 318 317 318 320 321 322 323 324 325 327 328 328 328 327 326 326 326 326 324 323 323 323 324 324 326 326 323 320 320 319 316 313 310 308 308 306 303 301 301 301 300 299 297 291 288 287 283 282 281 277 273 279 286 284 283 286 285 285 285 283 282 283 286 282 278 282 274 255 262 270 269 268 268 268 269 267 266 266 265 263 262 261 261 262 262
314 314 314 315 316 317 318 321 324 326 330 333 334 335 334 332 332 333 333 333 334 333 329 325 324 323 325 327 326 325 326 324 321 320 319 319 318 319 319 314 310 307 306 306 304 299 292 287 285 285 284 283 282 281 282 284 286 291 289 284 289 289 279 273 277 281 276 274 281 271 239 249 266 266 264 267 267 268 268 268 268 266 263 261 260 260 261 262
315 315 315 315 315 315 317 324 330 335 339 340 342 343 344 348 351 349 346 349 350 348 342 337 335 331 328 331 335 336 334 331 331 332 329 326 324 325 327 326 323 320 318 315 312 308 300 293 288 287 288 289 288 288 290 292 295 297 285 282 295 288 271 268 270 271 270 271 275 271 241 245 260 262 261 263 265 267 267 268 267 266 265 263 262 261 261 262
319 317 315 313 313 316 325 336 343 344 344 346 353 357 358 360 358 352 351 354 355 356 354 350 345 332 328 342 348 343 341 338 338 337 332 330 327 325 328 331 331 327 324 320 317 316 308 301 298 295 296 296 297 297 299 303 298 286 273 276 296 294 277 272 271 271 272 276 276 267 244 249 257 259 260 262 264 265 266 269 271 271 270 268 267 266 264 263
322 323 324 324 329 338 347 351 348 346 348 355 1 359 357 356 352 352 351 350 351 352 352 349 344 337 335 348 346 340 341 339 337 337 335 333 331 328 328 328 328 325 325 321 318 321 317 310 308 305 304 309 319 311 298 306 305 283 276 282 290 287 285 290 288 283 279 280 279 259 245 251 256 258 260 263 266 268 270 274 276 275 273 271 270 269 268 266
338 344 352 357 1 360 352 347 345 348 352 354 355 352 352 349 346 348 350 350 351 347 345 346 348 350 342 338 338 338 339 338 337 337 335 334 335 332 329 329 329 327 325 322 320 326 327 321 320 323 321 320 322 298 268 283 296 287 290 297 292 282 284 293 290 282 278 279 282 269 255 252 254 259 262 267 272 276 278 277 276 274 273 273 273 271 270 267
355 359 2 1 357 352 349 347 347 350 348 345 345 344 345 343 339 346 355 355 353 353 354 352 354 356 340 333 335 337 338 338 338 336 335 337 337 336 334 332 331 328 329 335 332 328 331 333 328 323 311 280 261 250 248 259 273 280 286 290 290 290 292 292 285 277 276 282 282 263 255 255 254 257 263 270 277 281 281 279 276 275 275 276 275 272 269 267
354 353 353 354 353 354 354 350 343 341 338 335 335 333 336 340 339 344 352 350 351 3 6 357 356 353 342 338 338 339 340 338 337 337 338 341 338 338 337 333 335 337 335 339 333 324 330 335 315 288 275 268 261 262 266 270 277 284 287 285 287 294 295 284 276 272 273 282 277 257 251 255 257 262 267 273 278 280 280 280 280 281 281 279 275 271 268 265
353 352 355 359 357 352 345 338 332 330 328 326 327 327 330 337 337 336 341 345 352 10 8 359 355 352 345 342 340 341 341 338 341 344 343 343 339 339 340 338 346 346 324 322 325 324 330 322 292 284 284 283 283 282 282 284 287 289 291 294 296 297 286 274 275 274 277 281 272 263 257 257 261 267 270 272 275 277 279 282 285 287 285 281 273 269 264 261
2 360 360 357 347 337 329 326 323 323 323 322 323 325 327 331 330 328 334 342 359 15 9 2 356 353 348 344 340 340 342 342 346 347 343 340 337 340 344 341 344 340 314 318 329 332 324 301 288 295 294 295 299 299 296 296 299 301 299 301 301 291 279 279 285 284 285 281 270 268 264 262 267 268 269 272 273 274 279 284 289 290 286 280 270 262 257 256
5 358 354 345 335 327 323 321 320 321 321 324 324 325 325 324 325 325 329 333 349 12 6 2 356 352 347 346 343 342 345 348 349 348 346 346 345 346 348 346 347 346 333 332 336 330 302 291 307 310 304 306 309 306 305 306 312 317 305 283 276 282 286 290 291 289 288 283 273 270 266 265 268 270 271 274 273 273 279 286 290 290 281 269 259 254 253 253
4 357 349 340 332 327 326 325 326 327 327 328 327 325 325 323 325 324 322 323 326 4 1 356 351 351 350 349 348 348 353 357 355 355 356 355 356 355 353 355 357 354 347 346 344 331 310 317 325 323 315 312 310 305 309 316 329 332 298 269 268 279 287 290 290 291 292 288 275 264 262 263 264 270 273 272 273 274 280 289 290 286 270 260 257 253 257 258
6 356 348 343 338 334 336 335 334 334 332 332 331 331 332 331 331 322 314 300 286 1 359 352 349 355 356 355 356 356 1 4 1 1 0 358 360 360 357 360 2 358 353 351 350 337 327 330 327 326 322 317 316 311 316 325 329 326 301 279 279 283 288 292 294 295 291 288 275 254 244 257 260 263 265 264 283 283 282 294 282 283 269 263 268 260 265 268
7 358 352 351 348 344 345 343 340 339 338 340 341 341 341 338 336 329 319 171 195 350 354 352 354 358 358 3 4 360 2 3 1 2 0 359 359 359 358 356 358 359 353 350 355 347 332 330 328 329 326 329 336 320 318 324 319 315 302 288 288 290 293 297 297 292 278 284 288 249 226 229 236 248 263 275 310 64 109 39 215 298 285 261 273 266 273 281
8 2 358 355 353 350 349 348 347 347 348 349 348 347 346 344 347 351 89 149 8 344 349 354 359 359 358 3 5 5 7 0 357 1 0 359 358 357 357 356 354 351 346 349 357 345 337 335 333 332 330 339 335 305 315 320 314 312 307 302 304 302 301 299 292 284 277 284 289 247 228 243 217 230 266 264 140 103 87 38 357 323 301 281 287 283 290 296
7 5 1 357 355 354 352 353 353 352 353 353 351 351 351 352 2 17 113 152 349 345 349 357 0 358 358 1 3 8 9 1 359 2 360 359 359 358 358 356 352 344 337 344 351 345 344 344 337 330 330 336 325 317 323 322 316 319 319 319 319 312 304 299 289 285 282 281 279 239 221 238 189 201 265 137 144 340 22 17 340 318 306 302 303 302 304 305
5 5 3 358 356 355 354 355 355 355 354 354 355 356 359 7 19 54 97 43 343 347 351 357 0 0 1 2 4 7 6 4 4 1 359 1 3 3 2 359 353 351 349 350 349 346 347 345 335 328 327 330 332 330 329 327 325 326 326 326 323 317 310 302 291 288 282 265 265 231 210 220 96 128 238 54 301 298 315 341 331 311 305 301 301 306 306 306
1 2 1 358 355 355 355 354 357 357 356 357 0 359 8 27 19 43 87 357 342 351 354 355 359 4 5 3 7 10 8 7 4 1 1 4 6 4 6 7 2 11 24 350 344 343 344 341 328 324 326 329 334 334 331 333 332 328 331 333 328 326 314 293 286 289 281 252 224 169 186 229 75 143 192 197 208 252 285 311 317 305 300 297 299 305 304 304
356 358 358 356 355 355 355 357 359 357 358 0 1 3 22 38 27 56 46 349 341 351 356 359 3 4 4 8 14 12 6 6 6 4 1 2 7 7 8 7 5 18 19 349 346 345 341 334 319 318 322 328 334 334 332 335 334 330 335 340 336 331 309 270 264 250 248 238 169 154 186 293 49 160 183 195 208 239 274 291 291 293 294 297 304 303 300 298
350 353 355 354 354 354 357 1 360 358 1 1 3 17 45 44 37 53 22 348 346 353 359 6 7 5 8 12 13 9 7 9 6 6 6 3 3 8 13 11 9 12 2 349 349 347 339 331 318 314 319 328 333 335 335 336 337 332 337 347 342 329 315 271 233 230 251 156 148 177 313 332 129 162 178 196 229 246 270 285 282 287 293 300 305 302 298 294
346 350 350 351 352 354 358 0 0 1 4 9 17 32 78 74 45 41 22 14 12 1 1 9 7 8 13 12 9 6 9 13 8 9 17 7 357 4 11 11 13 11 358 352 350 346 345 339 324 321 325 331 335 339 340 337 336 333 342 352 342 326 332 313 278 306 317 96 235 304 321 359 131 144 167 222 265 256 271 285 287 294 300 305 307 303 300 296
344 346 346 349 352 356 1 2 7 11 10 19 24 28 84 83 59 41 30 29 23 7 7 14 12 14 12 6 5 6 7 11 9 6 12 6 354 360 4 4 8 4 0 2 353 347 348 331 319 325 331 334 336 341 341 339 342 346 355 349 333 347 1 305 306 320 303 310 310 306 314 121 156 193 281 280 282 275 276 285 293 302 305 308 310 308 305 304
339 341 345 350 353 1 9 13 17 16 14 22 23 46 84 86 64 49 37 30 25 16 14 16 17 20 16 5 3 4 3 8 10 2 355 357 355 357 359 359 1 359 0 3 354 347 334 313 315 323 335 341 339 342 345 350 2 2 1 3 341 342 332 291 296 302 292 300 304 291 2 84 161 212 254 265 274 275 281 290 296 305 311 313 314 314 313 311
336 342 347 354 3 13 17 18 14 12 20 23 35 66 81 85 68 56 41 32 30 21 18 18 16 17 19 14 3 1 3 6 11 7 349 346 350 354 355 357 358 356 358 358 352 344 318 321 329 334 343 348 343 346 357 5 3 354 359 359 338 326 314 292 295 306 305 296 287 123 117 122 135 195 244 255 275 280 286 294 301 310 315 316 316 318 317 314
339 345 355 8 19 19 17 14 10 19 33 34 61 76 80 79 66 58 43 35 33 24 24 27 19 11 14 14 5 4 9 7 11 15 353 341 347 350 351 355 355 353 353 353 352 344 318 323 342 344 339 345 344 346 8 9 355 357 8 355 344 336 321 314 305 308 315 305 309 341 100 149 169 230 249 260 276 282 291 302 310 313 315 316 318 319 318 316
346 356 11 21 20 15 15 15 22 41 44 47 73 79 77 73 64 55 45 37 32 26 27 28 20 12 11 9 5 8 10 7 10 13 2 350 350 349 348 350 350 350 350 349 351 350 327 320 338 345 330 337 340 341 5 1 350 360 12 357 354 356 332 331 326 307 313 307 301 324 350 62 155 215 254 277 289 298 307 311 314 315 317 320 320 321 320 317
3 15 22 21 17 18 22 32 43 49 45 56 74 79 74 70 63 53 46 38 33 29 27 25 16 13 12 7 5 9 8 6 10 10 2 353 349 346 347 346 347 348 349 351 352 352 349 321 318 332 336 337 333 327 345 343 338 350 353 351 357 357 327 325 316 293 292 302 288 321 339 10 160 229 259 274 292 306 314 318 319 319 322 323 323 321 318 316
27 25 24 24 26 33 43 50 51 48 49 63 73 79 75 69 60 52 47 38 35 31 26 22 15 14 14 10 7 6 5 6 12 8 356 352 351 348 347 344 346 349 350 354 354 351 358 333 301 327 350 348 323 319 336 338 339 347 347 351 1 0 345 330 310 287 289 311 312 325 325 251 241 266 271 284 301 307 313 317 317 318 321 322 321 319 317 315
36 29 36 39 42 47 50 53 52 50 61 69 73 75 72 66 57 52 46 38 35 32 25 19 15 14 12 11 8 4 4 9 14 5 349 351 354 348 344 343 346 354 354 354 357 353 351 337 316 332 345 335 311 312 326 337 344 347 349 354 356 352 349 343 315 298 314 319 300 293 286 271 274 281 291 304 312 310 313 315 314 316 319 320 320 318 316 314
41 44 53 53 53 54 53 59 60 57 64 72 72 70 68 64 56 50 43 38 34 29 24 18 15 14 12 10 7 3 4 8 11 1 350 351 353 346 345 347 349 356 359 357 1 356 348 344 339 337 331 318 309 308 317 340 349 349 345 337 337 341 344 339 278 298 313 309 298 285 267 274 285 300 316 319 319 317 316 316 316 318 320 320 319 316 315 314
49 59 61 58 58 55 51 64 66 62 66 70 69 68 65 59 54 47 40 36 30 25 22 17 13 13 11 8 6 4 6 6 3 360 353 349 350 348 350 352 353 358 2 1 360 358 358 354 343 338 332 324 320 320 327 332 341 346 332 320 323 331 335 326 286 289 302 304 308 300 267 289 305 319 323 320 318 316 315 316 318 319 320 319 317 316 316 316
60 64 64 60 59 54 51 65 67 63 65 67 67 66 61 54 50 43 37 32 25 21 18 15 13 11 8 6 4 5 7 7 2 358 354 350 351 353 352 354 359 2 2 2 359 359 2 356 347 344 344 340 336 345 339 323 327 334 325 316 318 322 326 322 297 287 279 280 314 309 281 305 316 320 320 318 316 315 315 317 319 320 319 318 316 317 317 316
64 64 67 65 61 55 56 64 63 60 62 64 65 63 56 51 46 38 35 28 21 19 16 13 11 7 6 4 3 4 7 7 4 358 355 353 353 355 354 356 1 3 3 2 359 358 355 355 3 1 344 334 320 317 317 314 319 325 322 314 313 318 323 318 303 294 258 280 309 305 292 308 317 320 320 317 314 313 314 316 317 317 317 314 314 316 317 317
73 70 70 67 63 57 59 63 62 60 60 59 60 59 52 48 44 36 32 26 19 17 13 11 9 5 5 4 3 5 4 2 4 1 357 353 353 355 356 358 2 2 3 359 357 358 356 357 3 353 337 321 306 307 313 315 318 320 319 312 309 316 326 314 300 290 280 301 310 300 293 304 310 316 316 311 309 309 311 313 312 312 311 312 315 318 319 319
80 77 73 70 66 60 60 63 62 60 58 55 57 56 50 46 42 35 30 23 17 14 9 9 9 5 4 2 3 6 3 360 2 0 357 354 354 355 356 360 3 1 360 358 357 358 357 358 355 346 344 332 317 315 322 327 324 319 317 314 308 312 332 329 310 288 287 301 296 284 295 304 309 314 311 307 307 309 310 309 307 307 310 315 319 320 320 319
81 79 76 74 72 66 64 62 60 60 58 54 56 55 48 43 39 33 29 22 15 12 9 8 7 5 3 1 1 2 0 0 2 0 357 356 355 356 358 0 1 358 358 359 358 357 356 358 351 344 347 343 330 323 324 328 327 320 320 322 313 305 329 332 324 301 287 284 283 293 302 306 310 313 311 309 311 311 308 307 308 311 314 319 320 320 319 319
82 78 74 72 72 70 66 62 59 62 60 55 56 54 46 42 37 29 25 20 14 12 10 7 6 4 2 360 359 360 359 359 360 359 358 357 356 358 1 1 357 356 358 357 356 357 358 355 348 344 348 354 351 336 330 329 325 319 319 323 314 308 323 328 330 321 302 293 297 304 305 307 313 314 311 312 314 312 311 313 315 315 317 320 321 321 321 319
81 77 71 67 69 69 67 63 60 61 60 55 54 51 44 39 35 27 21 17 13 12 9 5 6 4 0 359 1 1 360 357 355 355 357 357 358 0 2 1 357 354 355 355 355 357 356 352 349 346 349 357 352 333 331 327 319 316 320 327 322 318 322 326 329 326 316 310 311 309 305 310 317 312 308 313 314 313 314 316 317 317 319 322 322 321 320 319
78 75 68 59 63 67 66 64 61 59 58 55 50 48 41 36 33 26 19 15 11 9 7 5 5 2 359 2 4 0 358 356 354 354 355 356 358 2 1 358 356 353 352 354 354 354 352 349 350 349 346 347 342 335 334 327 315 314 330 338 327 320 320 324 325 323 319 314 312 307 305 311 313 305 305 311 312 313 316 318 318 318 320 321 321 321 320 320
75 72 65 52 57 66 64 61 60 57 55 53 47 43 38 32 28 23 17 14 10 7 7 6 4 1 360 2 3 359 356 357 357 356 357 357 359 2 0 357 355 352 350 352 351 351 349 346 350 351 338 336 344 344 340 330 311 305 331 333 327 322 320 320 319 320 318 312 306 304 308 313 310 303 306 312 314 316 318 318 319 320 320 321 321 321 321 321
Height
3135 3136 3136 3136 3137 3137 3137 3138 3138 3139 3139 3139 3140 3140 3140 3140 3140 3139 3139 3139 3139 3139 3139 3138 3138 3138 3137 3137 3136 3136 3136 3135 3135 3134 3134 3134 3133 3133 3133 3132 3132 3132 3131 3131 3131 3131 3130 3130 3130 3130 3130 3129 3129 3130 3129 3129 3130 3129 3129 3129 3128 3128 3129 3130 3130 3128 3127 3125 3123 3123 3124 3125 3123 3123 3124 3123 3122 3122 3121 3120 3121 3121 3120 3121 3120 3120 3120 3119
3136 3137 3137 3138 3138 3138 3139 3139 3139 3140 3140 3140 3140 3140 3140 3140 3140 3140 3140 3140 3140 3139 3139 3139 3138 3138 3137 3137 3136 3136 3135 3135 3135 3134 3133 3133 3133 3133 3132 3132 3132 3131 3131 3130 3130 3130 3129 3129 3129 3128 3129 3128 3128 3128 3128 3128 3128 3128 3128 3127 3126 3127 3129 3129 3127 3125 3125 3124 3123 3121 3122 3123 3122 3121 3123 3122 3120 3120 3119 3118 3119 3119 3118 3118 3118 3118 3117 3117
3137 3138 3138 3139 3139 3139 3140 3140 3140 3140 3141 3141 3141 3141 3141 3141 3141 3140 3140 3140 3140 3139 3139 3139 3138 3138 3137 3136 3136 3135 3135 3134 3134 3133 3133 3133 3132 3132 3131 3131 3131 3131 3130 3130 3129 3129 3128 3128 3127 3127 3127 3127 3127 3126 3126 3127 3126 3126 3126 3125 3124 3126 3128 3127 3124 3123 3124 3124 3123 3121 3120 3121 3121 3120 3121 3120 3119 3117 3116 3116 3116 3116 3116 3117 3116 3116 3116 3115
3138 3139 3139 3139 3140 3140 3140 3141 3141 3141 3141 3141 3141 3141 3141 3141 3141 3140 3140 3140 3139 3139 3139 3138 3138 3137 3137 3136 3135 3135 3134 3133 3133 3132 3132 3131 3131 3131 3130 3130 3130 3130 3129 3129 3128 3127 3127 3126 3126 3126 3126 3125 3126 3126 3124 3124 3124 3124 3123 3122 3123 3125 3126 3123 3120 3121 3122 3122 3122 3120 3119 3120 3118 3118 3118 3119 3117 3115 3114 3114 3113 3113 3114 3115 3115 3114 3114 3113
3140 3140 3140 3141 3141 3141 3141 3142 3142 3142 3142 3142 3142 3141 3141 3141 3141 3140 3140 3139 3139 3138 3138 3137 3137 3136 3136 3135 3134 3133 3132 3132 3131 3131 3130 3130 3130 3129 3129 3128 3128 3128 3127 3127 3126 3126 3125 3125 3124 3124 3124 3123 3124 3124 3123 3122 3122 3122 3120 3121 3122 3122 3123 3120 3117 3120 3120 3120 3120 3118 3117 3117 3116 3115 3115 3116 3116 3114 3113 3113 3112 3111 3111 3113 3112 3112 3111 3111
3141 3141 3141 3141 3142 3142 3142 3142 3142 3142 3142 3142 3142 3141 3141 3141 3140 3140 3139 3139 3138 3138 3137 3136 3135 3135 3134 3133 3133 3132 3131 3131 3130 3129 3129 3128 3128 3127 3127 3126 3126 3126 3125 3125 3124 3124 3123 3123 3122 3122 3122 3121 3122 3122 3122 3122 3120 3119 3118 3120 3120 3120 3120 3116 3115 3118 3118 3117 3117 3116 3115 3115 3114 3112 3113 3114 3114 3113 3112 3112 3111 3109 3109 3110 3110 3109 3109 3108
3141 3142 3142 3142 3142 3142 3142 3142 3142 3142 3142 3142 3141 3141 3140 3140 3139 3139 3138 3138 3137 3136 3135 3135 3134 3133 3132 3132 3131 3130 3129 3129 3129 3128 3128 3127 3126 3126 3125 3125 3124 3124 3123 3123 3122 3122 3121 3120 3120 3120 3120 3119 3120 3120 3121 3121 3119 3116 3117 3118 3118 3117 3116 3114 3114 3116 3115 3115 3114 3114 3113 3113 3111 3109 3111 3111 3111 3111 3111 3110 3109 3108 3107 3107 3107 3106 3106 3105
3142 3142 3142 3142 3142 3142 3142 3142 3142 3142 3142 3141 3141 3140 3140 3139 3138 3138 3137 3136 3135 3135 3134 3133 3132 3131 3131 3130 3130 3128 3127 3126 3127 3127 3126 3125 3125 3124 3123 3123 3122 3122 3121 3121 3120 3119 3119 3118 3118 3118 3118 3118 3119 3119 3119 3119 3117 3115 3115 3116 3115 3114 3113 3112 3113 3113 3112 3112 3112 3112 3111 3109 3108 3108 3108 3108 3109 3109 3108 3108 3107 3106 3105 3104 3104 3104 3103 3103
3143 3143 3142 3142 3142 3142 3142 3142 3141 3141 3141 3140 3140 3139 3139 3138 3137 3136 3135 3135 3134 3133 3132 3131 3131 3130 3129 3129 3128 3127 3125 3125 3125 3125 3124 3124 3123 3122 3121 3121 3120 3120 3119 3118 3118 3117 3117 3116 3116 3116 3116 3116 3117 3116 3116 3116 3115 3113 3113 3113 3112 3112 3111 3110 3110 3110 3109 3110 3109 3109 3108 3106 3107 3107 3105 3104 3105 3105 3105 3105 3104 3104 3103 3102 3101 3101 3101 3100
3143 3142 3142 3142 3142 3142 3141 3141 3141 3140 3140 3139 3139 3138 3137 3136 3136 3135 3134 3133 3132 3132 3131 3130 3130 3129 3128 3128 3127 3126 3125 3124 3124 3123 3122 3122 3121 3120 3119 3119 3118 3118 3117 3116 3116 3115 3115 3114 3114 3114 3113 3114 3114 3113 3113 3112 3112 3112 3111 3110 3110 3109 3108 3107 3108 3107 3107 3107 3107 3107 3105 3103 3104 3104 3102 3101 3102 3102 3102 3102 3102 3101 3100 3099 3099 3098 3098 3098
3142 3142 3142 3141 3141 3141 3141 3140 3140 3139 3139 3138 3138 3137 3136 3135 3134 3133 3132 3132 3131 3130 3130 3129 3128 3128 3127 3126 3126 3125 3124 3123 3123 3122 3121 3120 3119 3119 3118 3117 3117 3116 3115 3115 3114 3114 3114 3113 3113 3113 3112 3112 3111 3111 3111 3110 3110 3110 3109 3107 3107 3108 3106 3105 3105 3104 3105 3104 3104 3105 3103 3101 3102 3101 3099 3099 3099 3099 3099 3099 3099 3098 3098 3097 3096 3096 3096 3095
3142 3142 3141 3141 3140 3140 3140 3139 3139 3138 3138 3137 3136 3136 3135 3134 3133 3132 3131 3130 3130 3129 3128 3128 3127 3126 3125 3125 3124 3124 3123 3122 3121 3121 3120 3119 3118 3117 3117 3116 3115 3115 3114 3113 3113 3112 3112 3112 3111 3111 3110 3110 3110 3109 3108 3108 3108 3107 3106 3105 3105 3105 3103 3103 3102 3102 3103 3102 3102 3102 3101 3100 3099 3098 3098 3097 3096 3096 3096 3096 3096 3096 3095 3095 3094 3094 3093 3093
3141 3141 3141 3140 3140 3139 3139 3139 3138 3137 3137 3136 3135 3134 3133 3132 3131 3131 3130 3129 3128 3128 3127 3126 3126 3125 3124 3124 3123 3123 3122 3121 3120 3120 3118 3117 3117 3116 3115 3114 3114 3113 3112 3112 3111 3111 3111 3110 3110 3109 3109 3108 3108 3107 3107 3106 3106 3105 3105 3103 3102 3102 3101 3100 3099 3100 3100 3099 3100 3100 3099 3098 3096 3095 3096 3095 3094 3094 3094 3094 3093 3093 3093 3092 3092 3091 3091 3091
3141 3140 3139 3139 3138 3138 3138 3138 3137 3136 3136 3135 3134 3133 3132 3131 3130 3130 3129 3128 3127 3127 3126 3125 3125 3124 3124 3123 3122 3122 3121 3120 3120 3119 3117 3116 3115 3114 3114 3113 3112 3111 3111 3110 3110 3110 3109 3109 3108 3108 3107 3107 3106 3106 3105 3105 3104 3104 3103 3102 3101 3100 3099 3098 3097 3098 3098 3098 3098 3098 3098 3096 3094 3093 3094 3092 3092 3092 3092 3091 3091 3091 3091 3090 3090 3089 3089 3089
3140 3139 3139 3138 3138 3137 3137 3137 3136 3135 3135 3134 3133 3132 3132 3131 3130 3129 3128 3128 3127 3126 3125 3125 3124 3123 3123 3122 3122 3121 3120 3119 3118 3117 3116 3115 3114 3113 3112 3111 3110 3110 3109 3109 3108 3108 3108 3107 3107 3106 3106 3106 3105 3104 3104 3103 3102 3102 3101 3100 3100 3100 3098 3097 3097 3096 3096 3096 3097 3096 3096 3094 3092 3092 3091 3090 3090 3090 3090 3090 3089 3089 3089 3089 3088 3088 3087 3087
3139 3138 3138 3137 3137 3136 3136 3136 3135 3135 3134 3134 3133 3132 3131 3131 3130 3129 3128 3127 3126 3126 3125 3124 3124 3123 3122 3121 3121 3120 3119 3118 3117 3116 3115 3114 3113 3112 3111 3110 3109 3109 3108 3107 3107 3107 3106 3105 3105 3104 3104 3104 3104 3103 3102 3102 3101 3100 3100 3099 3100 3100 3098 3097 3096 3095 3094 3095 3095 3095 3094 3091 3090 3089 3089 3088 3087 3088 3088 3088 3088 3087 3087 3087 3086 3086 3086 3086
3138 3138 3137 3137 3136 3136 3135 3135 3135 3134 3134 3133 3133 3132 3131 3130 3130 3129 3128 3127 3126 3125 3125 3124 3123 3122 3121 3121 3120 3120 3119 3118 3116 3115 3114 3113 3112 3111 3110 3110 3109 3108 3107 3106 3106 3105 3105 3104 3104 3104 3103 3103 3103 3102 3101 3101 3101 3100 3100 3099 3099 3099 3098 3097 3095 3094 3094 3094 3094 3094 3091 3089 3088 3088 3087 3086 3085 3086 3086 3086 3086 3085 3085 3085 3084 3084 3084 3084
3138 3137 3137 3136 3136 3135 3135 3135 3134 3134 3134 3133 3133 3132 3131 3130 3129 3129 3128 3127 3126 3125 3125 3124 3123 3122 3122 3121 3120 3120 3118 3117 3116 3115 3114 3113 3112 3111 3110 3109 3108 3107 3106 3105 3105 3105 3104 3103 3103 3103 3102 3102 3102 3102 3102 3101 3100 3100 3099 3098 3098 3097 3097 3096 3094 3093 3093 3093 3092 3091 3088 3087 3087 3086 3086 3084 3083 3084 3084 3084 3083 3083 3083 3082 3082 3082 3082 3082
3138 3137 3137 3136 3136 3135 3135 3135 3134 3134 3134 3133 3132 3132 3131 3130 3129 3128 3128 3126 3126 3125 3125 3124 3124 3123 3122 3121 3121 3120 3118 3117 3116 3115 3113 3112 3111 3111 3110 3108 3107 3106 3105 3104 3104 3103 3103 3103 3102 3102 3102 3102 3102 3101 3101 3100 3099 3099 3098 3097 3096 3095 3095 3094 3093 3092 3092 3092 3091 3088 3086 3085 3085 3085 3084 3083 3081 3081 3081 3081 3081 3080 3080 3080 3080 3080 3079 3079
3138 3137 3137 3136 3136 3135 3135 3135 3134 3134 3133 3133 3132 3131 3131 3130 3129 3128 3127 3127 3126 3126 3125 3125 3124 3123 3123 3122 3120 3119 3118 3116 3115 3114 3113 3111 3110 3109 3109 3108 3106 3105 3104 3104 3104 3103 3103 3102 3101 3101 3101 3101 3101 3101 3100 3099 3098 3097 3096 3096 3094 3094 3093 3091 3091 3091 3091 3090 3088 3086 3085 3083 3083 3083 3083 3081 3080 3079 3078 3078 3078 3078 3078 3078 3078 3078 3077 3077
3138 3137 3137 3136 3136 3135 3135 3135 3134 3134 3133 3132 3132 3131 3130 3130 3129 3128 3128 3127 3126 3126 3126 3125 3124 3124 3122 3121 3120 3119 3117 3116 3114 3113 3111 3110 3109 3108 3107 3106 3105 3104 3104 3104 3103 3103 3102 3101 3101 3101 3101 3100 3100 3099 3098 3097 3096 3095 3094 3094 3093 3093 3091 3090 3089 3089 3089 3088 3085 3084 3084 3082 3082 3081 3080 3080 3078 3077 3076 3076 3076 3076 3076 3076 3076 3076 3075 3076
3138 3138 3137 3136 3136 3136 3135 3135 3134 3133 3133 3132 3131 3130 3129 3129 3129 3128 3128 3127 3127 3126 3126 3125 3124 3123 3122 3121 3119 3118 3117 3115 3114 3113 3111 3110 3109 3108 3107 3106 3105 3105 3104 3103 3103 3102 3102 3101 3100 3100 3100 3099 3098 3097 3096 3095 3094 3094 3093 3092 3092 3091 3090 3089 3088 3087 3088 3087 3084 3083 3083 3081 3080 3079 3078 3077 3076 3075 3075 3075 3075 3074 3074 3074 3074 3074 3074 3074
3138 3138 3137 3137 3136 3136 3135 3134 3134 3133 3132 3131 3130 3130 3129 3129 3128 3127 3127 3127 3126 3126 3125 3125 3124 3123 3121 3120 3119 3117 3116 3114 3113 3112 3111 3110 3109 3107 3107 3106 3105 3105 3104 3103 3102 3102 3102 3101 3100 3100 3099 3098 3097 3095 3094 3093 3093 3092 3091 3091 3091 3090 3089 3088 3086 3086 3086 3086 3083 3081 3080 3078 3077 3077 3076 3075 3074 3074 3074 3073 3073 3073 3073 3073 3072 3073 3073 3073
3138 3138 3137 3137 3136 3135 3134 3134 3133 3132 3131 3130 3130 3129 3129 3128 3127 3127 3126 3126 3126 3126 3126 3125 3124 3123 3121 3120 3119 3117 3116 3115 3113 3112 3111 3110 3109 3108 3107 3106 3105 3104 3103 3103 3102 3101 3101 3101 3100 3099 3098 3096 3095 3094 3092 3092 3092 3091 3091 3090 3089 3088 3088 3087 3085 3084 3083 3083 3081 3078 3077 3076 3075 3075 3074 3073 3073 3073 3073 3072 3072 3072 3072 3072 3071 3072 3072 3072
3139 3138 3137 3137 3136 3135 3134 3133 3132 3131 3131 3130 3129 3129 3128 3127 3127 3126 3126 3126 3126 3126 3125 3124 3123 3122 3121 3120 3118 3117 3116 3115 3114 3112 3111 3110 3109 3108 3107 3106 3105 3104 3103 3103 3102 3101 3100 3100 3099 3097 3096 3095 3094 3093 3092 3091 3091 3090 3090 3089 3088 3087 3086 3085 3084 3083 3081 3079 3078 3077 3076 3074 3072 3072 3072 3072 3072 3072 3072 3072 3071 3071 3071 3071 3071 3071 3071 3071
3139 3138 3137 3136 3136 3134 3134 3133 3132 3131 3130 3129 3129 3128 3127 3127 3126 3126 3126 3126 3126 3126 3125 3124 3123 3122 3121 3120 3118 3117 3116 3115 3114 3113 3112 3111 3109 3108 3107 3106 3105 3104 3103 3102 3101 3101 3100 3099 3097 3096 3095 3094 3093 3092 3092 3091 3090 3089 3088 3087 3087 3085 3084 3083 3082 3081 3078 3077 3076 3075 3074 3073 3072 3071 3071 3072 3072 3071 3071 3071 3071 3070 3070 3070 3070 3070 3070 3070
3139 3138 3137 3136 3135 3134 3133 3132 3131 3131 3130 3129 3129 3128 3127 3127 3126 3125 3125 3126 3127 3127 3126 3125 3123 3123 3122 3121 3119 3118 3117 3116 3115 3114 3112 3111 3110 3108 3107 3106 3105 3104 3103 3102 3101 3101 3100 3098 3096 3095 3094 3094 3093 3092 3091 3090 3089 3088 3087 3086 3085 3083 3082 3080 3079 3078 3076 3075 3074 3073 3072 3072 3071 3071 3071 3071 3071 3071 3071 3070 3070 3069 3069 3069 3069 3069 3069 3069
3139 3138 3137 3136 3135 3134 3133 3132 3131 3130 3129 3129 3128 3127 3127 3126 3126 3125 3125 3127 3128 3128 3126 3125 3124 3123 3122 3121 3120 3118 3118 3117 3115 3114 3113 3111 3110 3108 3107 3106 3105 3104 3103 3102 3102 3101 3099 3097 3096 3095 3094 3093 3093 3092 3091 3089 3088 3087 3086 3084 3083 3081 3079 3077 3076 3075 3074 3074 3072 3070 3071 3071 3070 3070 3071 3071 3070 3070 3069 3069 3069 3069 3069 3068 3068 3068 3068 3068
3139 3138 3137 3136 3135 3134 3133 3132 3131 3130 3129 3129 3128 3127 3127 3126 3126 3125 3125 3128 3129 3128 3127 3126 3125 3124 3123 3121 3120 3119 3118 3117 3115 3114 3113 3111 3110 3108 3107 3106 3105 3103 3103 3102 3102 3100 3099 3097 3096 3095 3094 3093 3093 3091 3090 3089 3087 3086 3084 3082 3081 3079 3076 3075 3074 3073 3073 3073 3070 3068 3070 3070 3070 3071 3071 3070 3070 3069 3069 3069 3069 3068 3068 3068 3068 3067 3067 3067
3139 3138 3137 3136 3135 3134 3133 3132 3131 3130 3129 3128 3128 3127 3127 3126 3126 3125 3126 3129 3130 3129 3128 3127 3126 3125 3123 3122 3121 3120 3118 3117 3116 3114 3113 3111 3110 3109 3107 3106 3105 3104 3103 3102 3101 3100 3098 3097 3096 3094 3094 3093 3092 3091 3089 3088 3086 3084 3083 3080 3078 3075 3074 3073 3072 3072 3072 3071 3068 3068 3069 3068 3070 3072 3070 3070 3070 3069 3068 3069 3069 3068 3068 3068 3067 3067 3067 3066
3139 3138 3137 3136 3135 3134 3133 3132 3131 3130 3129 3128 3128 3127 3127 3126 3125 3126 3129 3130 3130 3129 3128 3127 3126 3125 3123 3122 3121 3120 3119 3117 3116 3114 3113 3111 3110 3109 3106 3105 3104 3103 3103 3102 3100 3099 3097 3096 3095 3094 3094 3093 3091 3090 3089 3088 3086 3084 3082 3079 3076 3074 3072 3071 3071 3073 3073 3069 3067 3068 3068 3067 3068 3070 3070 3070 3070 3069 3069 3069 3069 3068 3068 3067 3067 3066 3066 3066
3139 3138 3137 3136 3135 3134 3133 3132 3131 3130 3129 3128 3128 3127 3127 3126 3126 3128 3131 3130 3129 3129 3128 3127 3126 3125 3124 3122 3121 3120 3119 3117 3116 3114 3112 3110 3108 3107 3106 3105 3103 3102 3102 3100 3099 3098 3097 3096 3095 3094 3093 3092 3091 3089 3088 3087 3085 3083 3081 3079 3077 3074 3073 3072 3071 3071 3070 3068 3067 3067 3067 3067 3068 3069 3070 3070 3070 3069 3069 3068 3068 3068 3067 3067 3067 3066 3065 3065
3139 3138 3137 3136 3135 3134 3133 3132 3131 3130 3129 3128 3128 3128 3127 3127 3129 3131 3131 3130 3130 3130 3128 3127 3127 3125 3124 3123 3121 3120 3119 3117 3116 3114 3113 3111 3109 3108 3108 3108 3107 3106 3104 3101 3099 3098 3096 3095 3094 3094 3093 3091 3090 3088 3087 3085 3084 3083 3081 3080 3079 3078 3078 3076 3073 3071 3069 3068 3068 3067 3067 3068 3069 3069 3069 3070 3070 3069 3069 3068 3068 3068 3067 3067 3066 3065 3065 3064
3138 3138 3137 3136 3135 3134 3133 3132 3131 3130 3130 3129 3128 3128 3127 3129 3131 3132 3131 3131 3130 3130 3129 3128 3127 3126 3124 3123 3122 3121 3119 3117 3116 3115 3114 3113 3111 3110 3109 3108 3108 3107 3105 3103 3101 3099 3098 3096 3095 3094 3093 3091 3090 3089 3087 3085 3083 3083 3082 3082 3081 3081 3083 3081 3076 3074 3072 3070 3069 3067 3067 3068 3068 3069 3069 3069 3069 3069 3068 3068 3068 3067 3067 3066 3065 3064 3063 3062
3138 3138 3137 3136 3135 3134 3133 3132 3131 3131 3130 3129 3128 3127 3128 3130 3132 3132 3132 3131 3131 3130 3129 3128 3128 3126 3125 3124 3123 3121 3119 3118 3117 3115 3114 3113 3112 3110 3109 3108 3107 3106 3104 3103 3101 3100 3099 3098 3096 3095 3094 3092 3091 3089 3088 3085 3084 3084 3083 3083 3083 3082 3083 3081 3078 3076 3074 3072 3069 3067 3068 3068 3068 3069 3069 3068 3068 3068 3068 3068 3067 3067 3066 3065 3064 3063 3062 3061
3139 3138 3137 3136 3135 3134 3133 3133 3132 3131 3130 3129 3129 3128 3129 3131 3133 3132 3132 3132 3131 3131 3129 3128 3127 3126 3125 3124 3123 3122 3120 3119 3117 3116 3114 3113 3112 3111 3110 3109 3107 3106 3104 3104 3102 3100 3099 3097 3095 3094 3093 3093 3091 3089 3088 3086 3086 3085 3084 3084 3084 3083 3082 3080 3078 3075 3074 3073 3069 3067 3068 3069 3068 3069 3068 3068 3068 3067 3067 3067 3066 3066 3065 3064 3062 3061 3060 3058
3138 3138 3137 3136 3135 3135 3134 3133 3132 3131 3131 3130 3129 3129 3131 3132 3133 3133 3133 3132 3132 3131 3130 3128 3127 3126 3125 3124 3123 3122 3121 3119 3118 3117 3115 3114 3113 3112 3111 3110 3108 3107 3105 3104 3103 3102 3100 3097 3095 3094 3093 3093 3092 3090 3088 3088 3087 3086 3085 3085 3083 3082 3081 3081 3079 3076 3074 3074 3070 3067 3069 3069 3069 3069 3067 3067 3067 3066 3066 3066 3065 3064 3063 3062 3060 3059 3058 3056
3139 3138 3137 3137 3136 3135 3134 3133 3132 3131 3131 3130 3130 3130 3132 3133 3133 3133 3133 3133 3132 3131 3130 3129 3128 3127 3126 3124 3123 3122 3120 3119 3118 3117 3116 3115 3114 3112 3111 3110 3109 3107 3106 3104 3103 3102 3100 3097 3094 3094 3094 3093 3092 3091 3089 3088 3088 3087 3087 3086 3084 3083 3082 3081 3081 3079 3078 3076 3072 3069 3069 3069 3069 3068 3067 3066 3065 3065 3065 3064 3063 3062 3061 3060 3058 3056 3054 3052
3139 3138 3138 3137 3136 3135 3135 3134 3133 3132 3131 3131 3131 3132 3133 3134 3134 3134 3134 3133 3132 3131 3130 3129 3129 3128 3126 3125 3123 3122 3120 3119 3118 3117 3116 3115 3114 3113 3112 3110 3109 3107 3106 3104 3103 3102 3101 3099 3096 3095 3094 3092 3091 3090 3090 3089 3088 3087 3087 3086 3085 3085 3084 3083 3081 3080 3079 3077 3074 3071 3070 3069 3069 3068 3066 3066 3065 3064 3063 3062 3061 3060 3058 3057 3055 3053 3052 3049
3139 3139 3138 3137 3137 3136 3135 3134 3133 3133 3132 3132 3132 3133 3134 3135 3135 3134 3134 3133 3133 3132 3131 3130 3129 3128 3127 3125 3124 3122 3121 3119 3118 3117 3117 3116 3115 3113 3111 3110 3109 3107 3106 3104 3103 3102 3101 3100 3097 3094 3094 3093 3091 3090 3090 3088 3087 3087 3086 3085 3084 3085 3084 3082 3080 3079 3078 3077 3075 3074 3072 3069 3068 3067 3066 3066 3065 3065 3063 3062 3060 3058 3057 3056 3054 3052 3050 3047
3140 3139 3138 3138 3137 3137 3136 3135 3135 3134 3133 3133 3134 3134 3135 3135 3135 3135 3134 3134 3133 3132 3131 3130 3129 3128 3127 3125 3124 3123 3121 3119 3118 3118 3117 3116 3115 3113 3112 3110 3108 3107 3105 3104 3103 3102 3100 3100 3098 3094 3092 3092 3091 3090 3090 3089 3088 3087 3086 3085 3085 3084 3083 3082 3081 3078 3077 3077 3076 3075 3072 3068 3067 3067 3066 3066 3065 3064 3063 3062 3060 3058 3056 3054 3051 3049 3047 3045
3141 3140 3139 3139 3138 3137 3137 3136 3136 3135 3134 3134 3135 3135 3136 3136 3136 3136 3135 3134 3133 3133 3132 3131 3129 3128 3127 3125 3124 3123 3121 3120 3119 3118 3117 3116 3115 3113 3112 3110 3108 3106 3105 3104 3103 3102 3100 3099 3098 3095 3093 3092 3091 3090 3090 3089 3088 3087 3086 3085 3085 3084 3083 3083 3082 3078 3077 3077 3075 3074 3072 3067 3066 3067 3066 3065 3064 3062 3061 3060 3058 3056 3054 3051 3049 3047 3044 3041
3141 3141 3140 3140 3139 3138 3138 3137 3137 3137 3136 3136 3136 3136 3137 3137 3136 3136 3135 3135 3134 3133 3132 3131 3129 3128 3127 3126 3124 3123 3121 3120 3119 3118 3117 3116 3114 3113 3111 3109 3108 3106 3105 3104 3103 3102 3100 3099 3097 3095 3094 3092 3091 3090 3090 3089 3089 3087 3086 3085 3084 3084 3082 3082 3081 3079 3078 3076 3074 3073 3071 3067 3066 3066 3064 3063 3062 3060 3058 3057 3055 3053 3050 3048 3046 3043 3040 3037
3142 3142 3141 3141 3140 3140 3139 3138 3138 3138 3137 3137 3137 3138 3138 3137 3137 3137 3136 3135 3134 3133 3132 3131 3130 3128 3127 3126 3124 3123 3121 3120 3119 3118 3117 3115 3114 3112 3111 3109 3108 3107 3106 3104 3103 3102 3101 3099 3098 3096 3094 3093 3091 3091 3090 3088 3088 3088 3086 3084 3083 3082 3081 3080 3079 3079 3078 3075 3074 3073 3071 3067 3066 3065 3063 3061 3059 3057 3055 3053 3051 3049 3046 3044 3042 3039 3036 3033
3143 3143 3142 3141 3141 3141 3140 3139 3139 3139 3138 3139 3139 3138 3138 3138 3138 3137 3136 3136 3135 3133 3132 3131 3130 3128 3127 3126 3124 3122 3121 3120 3119 3118 3116 3115 3113 3112 3111 3109 3108 3107 3106 3105 3104 3102 3101 3100 3099 3098 3097 3096 3094 3093 3091 3089 3087 3087 3086 3084 3082 3081 3080 3079 3078 3078 3077 3074 3073 3072 3070 3067 3066 3064 3062 3059 3056 3054 3052 3050 3048 3046 3043 3041 3039 3036 3033 3029
3144 3144 3143 3143 3143 3143 3141 3140 3141 3140 3140 3140 3140 3139 3139 3139 3138 3138 3137 3136 3135 3133 3132 3131 3130 3128 3127 3126 3124 3122 3120 3119 3119 3117 3116 3114 3113 3111 3110 3109 3108 3107 3106 3105 3104 3102 3101 3100 3099 3099 3099 3098 3096 3093 3092 3090 3088 3086 3085 3083 3081 3079 3079 3078 3078 3078 3076 3074 3072 3071 3069 3066 3065 3065 3062 3058 3055 3053 3051 3049 3046 3044 3042 3039 3035 3032 3028 3024
3145 3145 3145 3144 3144 3144 3143 3142 3142 3141 3141 3141 3140 3140 3140 3139 3139 3138 3137 3136 3135 3134 3132 3131 3129 3128 3126 3125 3123 3122 3121 3119 3118 3117 3115 3114 3112 3111 3110 3109 3108 3107 3106 3105 3104 3102 3101 3100 3099 3099 3098 3096 3094 3092 3091 3090 3087 3085 3083 3082 3080 3078 3078 3078 3078 3077 3076 3074 3071 3069 3068 3065 3063 3062 3060 3057 3054 3052 3049 3047 3044 3041 3038 3035 3031 3028 3024 3020
3147 3146 3146 3145 3145 3145 3144 3144 3143 3143 3142 3142 3141 3141 3141 3140 3139 3139 3137 3136 3135 3134 3132 3130 3129 3127 3126 3124 3123 3121 3120 3119 3118 3117 3115 3114 3112 3111 3110 3109 3108 3107 3106 3105 3103 3102 3100 3100 3099 3098 3096 3095 3092 3091 3090 3088 3086 3083 3082 3080 3078 3078 3077 3077 3076 3075 3075 3073 3070 3067 3066 3063 3060 3058 3056 3053 3052 3050 3047 3044 3041 3037 3034 3030 3027 3023 3020 3016
3148 3148 3147 3147 3146 3146 3145 3145 3144 3144 3143 3143 3142 3142 3141 3141 3140 3139 3138 3137 3135 3133 3132 3130 3129 3127 3126 3124 3123 3121 3119 3118 3117 3116 3115 3113 3112 3111 3110 3109 3108 3107 3106 3104 3103 3102 3100 3099 3098 3097 3095 3093 3091 3090 3089 3086 3084 3082 3080 3079 3078 3077 3077 3075 3074 3073 3073 3071 3068 3066 3063 3059 3057 3054 3051 3050 3048 3046 3043 3040 3036 3033 3029 3026 3022 3018 3015 3011
3150 3149 3149 3149 3148 3147 3146 3146 3146 3145 3144 3144 3143 3142 3142 3141 3140 3139 3138 3136 3135 3133 3132 3130 3129 3127 3126 3124 3122 3121 3119 3117 3116 3115 3114 3113 3112 3110 3109 3108 3107 3106 3105 3104 3103 3101 3100 3099 3098 3096 3093 3091 3090 3089 3088 3086 3083 3080 3079 3078 3077 3077 3075 3074 3073 3072 3070 3068 3066 3064 3059 3056 3054 3051 3048 3046 3045 3042 3039 3035 3031 3028 3025 3021 3018 3014 3010 3006
3151 3150 3150 3150 3149 3148 3147 3147 3147 3146 3145 3144 3144 3143 3143 3142 3140 3139 3138 3136 3135 3133 3132 3130 3128 3127 3125 3124 3122 3120 3119 3118 3116 3115 3114 3112 3111 3110 3109 3108 3107 3106 3105 3104 3102 3101 3100 3098 3097 3095 3093 3091 3090 3088 3085 3084 3082 3080 3078 3078 3077 3075 3074 3073 3072 3071 3069 3066 3063 3060 3056 3054 3052 3049 3046 3044 3042 3039 3035 3031 3027 3024 3021 3017 3013 3010 3006 3001
3152 3152 3151 3151 3150 3149 3149 3148 3147 3147 3146 3145 3144 3144 3143 3142 3141 3140 3138 3136 3135 3133 3131 3130 3128 3126 3125 3123 3122 3120 3119 3118 3116 3115 3114 3112 3111 3110 3109 3108 3107 3106 3105 3103 3102 3100 3099 3097 3096 3094 3092 3090 3089 3086 3083 3081 3080 3079 3077 3077 3075 3074 3072 3071 3070 3069 3067 3065 3061 3057 3053 3051 3050 3047 3043 3041 3038 3035 3030 3027 3023 3019 3015 3012 3009 3005 3001 2997